Weather History for KIML - August, 2014

Change the Weather History Date:

Friday, August 15, 2014

  Actual Average Record
Temperature  
Mean Temperature 79 °F 74 °F  
Max Temperature 93 °F 88 °F 106 °F (1937)
Min Temperature 64 °F 61 °F 49 °F (1920)
Degree Days  
Heating Degree Days 0 0  
Month to date heating degree days 0 0  
Since 1 June heating degree days 40 36  
Cooling Degree Days 14 9  
Month to date cooling degree days 168 158  
Year to date cooling degree days 705 742  
Since 1 June cooling degree days 644 698  
Growing Degree Days 28 (Base 50)    
Moisture  
Dew Point 60 °F    
Average Humidity 60    
Maximum Humidity 93    
Minimum Humidity 26    
Precipitation  
Precipitation T in 0.08 in 2.04 in (1981)
Sea Level Pressure  
Sea Level Pressure 29.85 in    
Wind  
Wind Speed 9 mph (NW)    
Max Wind Speed 22 mph    
Max Gust Speed 26 mph    
Visibility 10 miles    
Events Rain    
T = Trace of Precipitation, MM = Missing Value Source: NWS Daily Summary

Daily Weather History Graph

Daily Weather History Graph

Search for Another Location

Airport or City:

Trip Planner

Search our weather history database for the weather conditions in past years. The results will help you decide how hot, cold, wet, or windy it might be!

Date:

Astronomy

Aug. 15, 2014 Rise Set
Actual Time 5:57 AM MDT 7:43 PM MDT
Civil Twilight 5:27 AM MDT 8:13 PM MDT
Nautical Twilight 4:52 AM MDT 8:48 PM MDT
Astronomical Twilight 4:14 AM MDT 9:26 PM MDT
Moon 10:46 PM MDT (8/15) 11:43 AM MDT (8/15)
Length of Visible Light 14h 45m
Length of Day
13h 46m
Waning Gibbous, 68% of the Moon is Illuminated
Aug 15
Waning Gibbous
Aug 17
Last Quarter
Aug 25
New
Sep 2
First Quarter
Sep 8
Full

Hourly Weather History & Observations

Time (MDT) Temp. Heat Index Dew Point Humidity Pressure Visibility Wind Dir Wind Speed Gust Speed Precip Events Conditions
12:53 AM 70.0 °F - 64.9 °F 84% 29.82 in 10.0 mi NW 8.1 mph - 0.01 in Rain Light Rain
1:53 AM 68.0 °F - 64.0 °F 87% 29.81 in 10.0 mi SW 5.8 mph - 0.00 in   Clear
2:53 AM 66.9 °F - 63.0 °F 87% 29.80 in 10.0 mi NNW 3.5 mph - N/A   Clear
3:53 AM 66.9 °F - 63.0 °F 87% 29.82 in 10.0 mi NNW 6.9 mph - N/A   Scattered Clouds
4:53 AM 66.9 °F - 63.0 °F 87% 29.83 in 10.0 mi SW 5.8 mph - N/A   Partly Cloudy
5:53 AM 64.4 °F - 62.6 °F 94% 29.96 in 10.0 mi WSW 3.5 mph - N/A   Scattered Clouds
6:53 AM 64.0 °F - 61.0 °F 90% 29.86 in 10.0 mi WSW 6.9 mph - N/A   Clear
7:53 AM 69.8 °F - 64.4 °F 83% 29.97 in 10.0 mi WSW 8.1 mph - N/A   Clear
8:53 AM 75.9 °F - 63.0 °F 64% 29.87 in 10.0 mi WNW 15.0 mph - N/A   Clear
9:53 AM 79.0 °F - 62.1 °F 56% 29.87 in 10.0 mi NW 13.8 mph - N/A   Clear
10:53 AM 82.0 °F 83.4 °F 64.0 °F 54% 29.87 in 10.0 mi NW 17.3 mph 21.9 mph N/A   Clear
11:53 AM 86.0 °F 86.1 °F 61.0 °F 43% 29.85 in 10.0 mi NNW 17.3 mph - N/A   Clear
12:53 PM 89.1 °F 88.2 °F 59.0 °F 36% 29.84 in 10.0 mi NNW 19.6 mph - N/A   Clear
1:53 PM 90.0 °F 88.8 °F 57.9 °F 34% 29.84 in 10.0 mi North 17.3 mph - N/A   Clear
2:53 PM 91.0 °F 88.9 °F 55.0 °F 29% 29.83 in 10.0 mi North 16.1 mph - N/A   Clear
3:53 PM 91.9 °F 90.0 °F 55.0 °F 29% 29.81 in 10.0 mi North 12.7 mph - N/A   Clear
4:53 PM 93.0 °F 90.6 °F 53.1 °F 26% 29.81 in 10.0 mi NNW 12.7 mph - N/A   Clear
5:53 PM 90.0 °F 87.9 °F 55.0 °F 30% 29.81 in 10.0 mi North 8.1 mph - N/A   Clear
6:53 PM 86.0 °F 84.9 °F 57.0 °F 37% 29.82 in 10.0 mi North 5.8 mph - N/A   Clear
7:53 PM 77.0 °F - 61.0 °F 58% 29.83 in 10.0 mi North 6.9 mph - N/A   Clear
8:53 PM 75.0 °F - 60.1 °F 60% 29.85 in 10.0 mi NE 5.8 mph - N/A   Clear
9:53 PM 73.0 °F - 60.1 °F 64% 29.86 in 10.0 mi ENE 3.5 mph - N/A   Clear
11:53 PM 70.0 °F - 60.1 °F 71% 29.85 in 10.0 mi Calm Calm - N/A   Clear